Regional Weather Roundup
Issued by NWS

Home | Current Version | Previous Version | Text Only | Print | Product List | Glossary On
Versions: 1 2 3 4 5 6 7 8 9 10 11 12 13 14 15 16 17 18 19 20 21 22 23 24 25 26 27 28 29 30 31 32 33 34 35 36 37 38 39 40 41 42 43 44 45 46 47 48 49 50
000
ASUS44 KOUN 270510
RWROK

WEATHER ROUNDUP FOR OKLAHOMA
NATIONAL WEATHER SERVICE NORMAN OK
1100 PM CST WED FEB 26 2020

NOTE: "FAIR" INDICATES FEW OR NO CLOUDS BELOW 12,000 FEET WITH NO
      SIGNIFICANT WEATHER AND/OR OBSTRUCTIONS TO VISIBILITY.

OKZ001>007-009>012-014-015-017-270600-
NORTHWEST OKLAHOMA AND THE PANHANDLE

CITY           SKY/WX    TMP DP  RH WIND       PRES   REMARKS
GAGE           CLEAR     24  18  77 CALM      30.31F
GUYMON         CLEAR     26  15  63 S5        30.27S WCI  20
ENID/WOODRING  CLEAR     27  23  86 CALM      30.36S
$$

OKZ016-021>023-033>039-044-045-270600-
SOUTHWEST OKLAHOMA

CITY           SKY/WX    TMP DP  RH WIND       PRES   REMARKS
LAWTON/REGL    CLEAR     24  18  77 CALM      30.39F
LAWTON/FT SILL CLEAR     29  17  61 CALM      30.37F
FREDERICK      CLEAR     30  15  53 SE5       30.36F WCI  25
CLINTON        CLEAR     25  18  74 S5        30.35F WCI  19
HOBART         CLEAR     29  19  66 S12       30.37F WCI  19
ALTUS AFB      CLEAR     26  16  65 S3        30.37F
$$

OKZ018>020-024>031-270600-
CENTRAL OKLAHOMA

CITY           SKY/WX    TMP DP  RH WIND       PRES   REMARKS
OKLAHOMA CITY  CLEAR     23  17  78 SW5       30.38S WCI  17
OKC/WILEY POST CLEAR     26  18  71 CALM      30.38F
OKC/TINKER AFB CLEAR     32  16  50 CALM      30.37F
STILLWATER     CLEAR     25  19  78 CALM      30.37F
GUTHRIE        CLEAR     24  20  84 S3        30.38S
$$

OKZ008-013-054>072-270600-
NORTHEAST OKLAHOMA

CITY           SKY/WX    TMP DP  RH WIND       PRES   REMARKS
TULSA          CLEAR     29  19  66 W6        30.38S WCI  23
TULSA/JONES    CLEAR     29  20  69 CALM      30.39F
PONCA CITY     CLEAR     27  20  75 CALM      30.37S
BARTLESVILLE   CLEAR     25  21  85 CALM      30.38F
MUSKOGEE       CLEAR     30  21  69 W6        30.40F WCI  24
$$

OKZ032-040>043-046>053-073>077-270600-
SOUTH CENTRAL/SOUTHEAST OKLAHOMA

CITY           SKY/WX    TMP DP  RH WIND       PRES   REMARKS
ARDMORE/DWNTWN CLEAR     32  21  64 CALM      30.42S
MCALESTER      CLEAR     25  20  81 CALM      30.40F
$$




USA.gov is the U.S. government's official web portal to all federal, state and local government web resources and services.